Location: Newark
(6.1731°S, 35.7419°E)
Time: 09:32:05
(UTC+00:00)

Altair - Pass Details

Date: 26 February 2020
Orbit: 1501 x 1682 km, 47.2° (Epoch: 07 April)

Event Time Altitude Azimuth Distance (km) Brightness Sun altitude
Rises 19:56:59 0° 256° (WSW) 4,634 10.5 -58.2°
Reaches altitude 10° 20:01:38 10° 276° (W) 3,647 9.7 -59.2°
Enters shadow 20:02:01 11° 279° (W) 3,584 9.7 -59.3°
